DW0742 Weather Reports


Display with metric or nautical units.
time (UTC)temp
F
wind
direction
speed
MPH
gust
MPH
rain 1hr
in
rain 24hr
in
rain mn
in
humidity
%
barometer
mb
20260502211536 98 69 1.0 9.0 0.00 0.00 0.00 100 1003.5
20260502210036 98 101 2.0 11.0 0.00 0.00 0.00 1 1003.9
20260502204538 99 59 0.0 7.0 0.00 0.00 0.00 1 1004.0
20260502203059 97 79 0.0 7.0 0.00 0.00 0.00 100 1004.2
20260502201539 98 98 1.0 6.0 0.00 0.00 0.00 100 1004.6
20260502200035 97 0 0.0 5.0 0.00 0.00 0.00 2 1004.9
20260502194537 96 93 1.0 6.0 0.00 0.00 0.00 1 1005.1
20260502193043 96 94 0.0 5.0 0.00 0.00 0.00 100 1005.2
20260502191541 97 71 2.0 5.0 0.00 0.00 0.00 100 1005.4
20260502190041 97 0 1.0 5.0 0.00 0.00 0.00 1 1005.7
20260502184538 95 0 0.0 4.0 0.00 0.00 0.00 1 1005.7
20260502183043 94 0 0.0 0.0 0.00 0.00 0.00 1 1006.2
20260502181557 93 0 0.0 2.0 0.00 0.00 0.00 2 1006.2
20260502163043 89 0 0.0 0.0 0.00 0.00 0.00 12 1007.0
20260502161544 88 0 0.0 0.0 0.00 0.00 0.00 15 1007.0
20260502151554 81 0 0.0 0.0 0.00 0.00 0.00 27 1006.9
20260502123036 67 0 0.0 0.0 0.00 0.00 0.00 34 1005.5
20260502121538 67 0 0.0 0.0 0.00 0.00 0.00 35 1005.4
20260502114549 68 0 0.0 0.0 0.00 0.00 0.00 34 1005.3
20260502113042 68 0 0.0 0.0 0.00 0.00 0.00 35 1005.2
20260502111536 68 0 0.0 0.0 0.00 0.00 0.00 36 1005.3
20260502110044 68 0 0.0 0.0 0.00 0.00 0.00 38 1005.3
20260502104543 68 0 0.0 0.0 0.00 0.00 0.00 40 1005.2
20260502103042 68 0 0.0 0.0 0.00 0.00 0.00 40 1005.0
20260502101545 68 0 0.0 0.0 0.00 0.00 0.00 40 1005.2
20260502070044 74 0 0.0 0.0 0.00 0.00 0.00 33 1005.4
20260502064554 75 0 0.0 0.0 0.00 0.00 0.00 31 1005.1
20260502063040 76 0 0.0 0.0 0.00 0.00 0.00 30 1005.1
20260502061537 76 0 0.0 0.0 0.00 0.00 0.00 29 1005.0
20260502060046 77 0 0.0 0.0 0.00 0.00 0.00 28 1004.8
20260502054543 78 0 0.0 0.0 0.00 0.00 0.00 26 1004.9
20260502053042 79 0 0.0 0.0 0.00 0.00 0.00 24 1004.9
20260502051542 80 0 0.0 0.0 0.00 0.00 0.00 22 1004.8
20260502050037 81 0 0.0 0.0 0.00 0.00 0.00 20 1004.9
20260502044539 82 0 0.0 0.0 0.00 0.00 0.00 18 1004.7
20260502043043 83 0 0.0 0.0 0.00 0.00 0.00 17 1004.3
20260502041541 83 0 0.0 0.0 0.00 0.00 0.00 17 1004.3
20260502041024 83 0 0.0 0.0 0.00 0.00 0.00 17 1004.2
20260502040524 84 0 0.0 0.0 0.00 0.00 0.00 19 1004.0
20260502040054 84 0 0.0 0.0 0.00 0.00 0.00 19 1003.8
20260502035524 84 0 0.0 0.0 0.00 0.00 0.00 17 1003.8
20260502035024 85 0 0.0 1.0 0.00 0.00 0.00 17 1003.8
20260502034536 85 0 0.0 1.0 0.00 0.00 0.00 17 1003.6
20260502034024 85 0 0.0 0.0 0.00 0.00 0.00 17 1003.6
20260502033527 85 0 0.0 2.0 0.00 0.00 0.00 17 1003.4
20260502033036 85 0 0.0 4.0 0.00 0.00 0.00 16 1003.4
20260502032525 85 0 0.0 7.0 0.00 0.00 0.00 16 1003.2
20260502032025 85 101 1.0 7.0 0.00 0.00 0.00 16 1003.2
20260502031548 85 0 0.0 0.0 0.00 0.00 0.00 18 1003.1
20260502031025 86 0 0.0 0.0 0.00 0.00 0.00 18 1003.0
20260502030525 86 0 0.0 0.0 0.00 0.00 0.00 18 1002.8
20260502030043 87 0 0.0 0.0 0.00 0.00 0.00 18 1002.7
20260502025525 87 0 0.0 0.0 0.00 0.00 0.00 17 1002.6
20260502025024 88 0 0.0 0.0 0.00 0.00 0.00 16 1002.6
20260502024544 88 0 0.0 0.0 0.00 0.00 0.00 15 1002.4
20260502024024 89 0 0.0 0.0 0.00 0.00 0.00 15 1002.4
20260502023524 89 0 0.0 0.0 0.00 0.00 0.00 14 1002.3
20260502023039 90 0 0.0 0.0 0.00 0.00 0.00 14 1002.1
20260502022524 90 0 0.0 0.0 0.00 0.00 0.00 13 1002.2
20260502022024 90 0 0.0 0.0 0.00 0.00 0.00 13 1002.1
20260502021538 91 0 0.0 0.0 0.00 0.00 0.00 13 1002.1
20260502021023 91 0 0.0 3.0 0.00 0.00 0.00 13 1002.0
20260502020525 92 0 0.0 3.0 0.00 0.00 0.00 12 1002.0
20260502020035 92 0 0.0 3.0 0.00 0.00 0.00 11 1001.9
20260502015525 93 0 0.0 3.0 0.00 0.00 0.00 10 1001.8
20260502015024 93 0 0.0 1.0 0.00 0.00 0.00 10 1001.8
20260502014549 94 0 0.0 0.0 0.00 0.00 0.00 9 1001.8
20260502014024 95 0 0.0 0.0 0.00 0.00 0.00 9 1001.8
20260502013524 95 0 0.0 0.0 0.00 0.00 0.00 8 1001.8
20260502013040 95 0 0.0 0.0 0.00 0.00 0.00 8 1001.8
20260502012524 95 0 0.0 0.0 0.00 0.00 0.00 8 1001.8
20260502012024 94 0 0.0 0.0 0.00 0.00 0.00 8 1001.6
20260502011538 94 0 0.0 0.0 0.00 0.00 0.00 9 1001.7
20260502011023 93 0 0.0 0.0 0.00 0.00 0.00 9 1001.7
20260502010524 92 0 0.0 0.0 0.00 0.00 0.00 10 1001.6
20260502010035 91 0 0.0 0.0 0.00 0.00 0.00 10 1001.5
20260502005524 91 0 0.0 0.0 0.00 0.00 0.00 9 1001.7
20260502005024 92 0 0.0 0.0 0.00 0.00 0.00 9 1001.7
20260502004549 92 0 0.0 0.0 0.00 0.00 0.00 9 1001.6
20260502004024 92 0 0.0 0.0 0.00 0.00 0.00 9 1001.6
20260502003528 93 0 0.0 0.0 0.00 0.00 0.00 9 1001.6
20260502003045 93 0 0.0 0.0 0.00 0.00 0.00 9 1001.6
20260502002524 94 0 0.0 0.0 0.00 0.00 0.00 7 1001.6
20260502002025 94 0 0.0 0.0 0.00 0.00 0.00 7 1001.7
20260502001601 94 0 0.0 0.0 0.00 0.00 0.00 6 1001.7
20260502001025 95 0 0.0 0.0 0.00 0.00 0.00 5 1001.6
20260502000524 95 0 0.0 3.0 0.00 0.00 0.00 5 1001.7
20260502000037 96 0 0.0 3.0 0.00 0.00 0.00 5 1001.7
20260501235525 96 0 0.0 3.0 0.00 0.00 0.00 6 1001.8
20260501235024 97 0 0.0 3.0 0.00 0.00 0.00 5 1001.8
20260501234543 97 0 0.0 1.0 0.00 0.00 0.00 5 1001.7
20260501234023 98 0 0.0 2.0 0.00 0.00 0.00 6 1001.9
20260501233524 98 0 0.0 2.0 0.00 0.00 0.00 6 1001.9
20260501233107 98 0 0.0 1.0 0.00 0.00 0.00 5 1001.8
20260501232528 98 0 0.0 3.0 0.00 0.00 0.00 6 1001.8
20260501232024 98 0 0.0 3.0 0.00 0.00 0.00 5 1001.9
20260501231539 98 92 0.0 3.0 0.00 0.00 0.00 6 1001.9
20260501231024 98 0 0.0 2.0 0.00 0.00 0.00 6 1002.0
20260501230528 97 0 0.0 2.0 0.00 0.00 0.00 6 1002.1
20260501230037 97 0 0.0 2.0 0.00 0.00 0.00 8 1002.2
20260501225525 96 0 0.0 2.0 0.00 0.00 0.00 6 1002.3
20260501225024 97 0 0.0 3.0 0.00 0.00 0.00 6 1002.3
20260501224552 97 0 0.0 4.0 0.00 0.00 0.00 6 1002.3
20260501224028 97 0 0.0 4.0 0.00 0.00 0.00 7 1002.4
20260501223525 96 0 0.0 3.0 0.00 0.00 0.00 6 1002.4
20260501223038 97 0 0.0 3.0 0.00 0.00 0.00 5 1002.6
20260501222525 97 0 0.0 5.0 0.00 0.00 0.00 5 1002.6
20260501222025 97 0 0.0 5.0 0.00 0.00 0.00 5 1002.7
20260501221544 98 103 0.0 4.0 0.00 0.00 0.00 6 1002.8
20260501221024 97 0 0.0 5.0 0.00 0.00 0.00 7 1002.9
20260501220524 98 0 0.0 6.0 0.00 0.00 0.00 8 1003.0
20260501220049 98 103 1.0 7.0 0.00 0.00 0.00 7 1003.0
20260501215524 98 0 0.0 7.0 0.00 0.00 0.00 8 1003.0
20260501215023 98 120 0.0 5.0 0.00 0.00 0.00 7 1003.2
20260501214540 97 0 0.0 5.0 0.00 0.00 0.00 7 1003.3
20260501214023 98 0 0.0 5.0 0.00 0.00 0.00 5 1003.4
20260501213529 97 0 0.0 5.0 0.00 0.00 0.00 7 1003.4
20260501213039 96 0 0.0 6.0 0.00 0.00 0.00 6 1003.5
20260501212525 97 43 1.0 6.0 0.00 0.00 0.00 6 1003.6